Погода в Саласпилсе

Латвия     56°51′26″N   24°21′05″E
темп.,
°C
ветер,
м/с
пор.,
м/с
влажн.,
%
обл.,
%
осадки,
мм/ч
давл.,
гПа
погр.,
м
16 сентября, чт
чт1600:00+7всв22941 0.0 102018
03:00+6вюв22959 0.0 102035
06:00+4вюв249323 0.0 102087
09:00+7вюв3678100 0.0 1020213
12:00+12вюв4662100 0.0 1019624
15:00+15вюв4553100 0.0 10181002
18:00+14вюв3658100 0.0 1016773
21:00+11в41064100 0.0 1016443
17 сентября, пт
пт1700:00+10в41170100 0.1 1016409
03:00+10в41168100 0.1 1015447
06:00+9в41167100 0.0 1014479
09:00+9в51266100 0.0 1015529
12:00+12в5105673 0.0 1016689
15:00+15в5749100 0.0 10161206
18:00+13в5852100 0.0 10161127
21:00+10всв41262100 0.0 1018676
18 сентября, сб
сб1800:00+8всв41266100 0.0 1019590
03:00+7всв41270100 0.0 1019482
06:00+6всв41271100 0.0 1020482
09:00+7всв41363100 0.0 1020608
12:00+12в6104372 0.0 10201093
15:00+14всв6838100 0.0 10201457
18:00+12всв510485 0.0 10201208
21:00+8св412610 0.0 1021670
19 сентября, вс
вс1900:00+6св412710 0.0 1021472
03:00+5св412810 0.0 1021411
06:00+4св412870 0.0 1021421
09:00+6св413730 0.0 1021539
12:00+12всв59480 0.0 10211058
15:00+14всв58405 0.0 10211562
18:00+13всв48505 0.0 10211494
21:00+8св411685 0.0 1023399
20 сентября, пн
пн2000:00+6св4117228 0.0 1023546
03:00+4св410805 0.0 1024425
06:00+3св411847 0.0 1024403
09:00+5св4117440 0.0 1025530
12:00+10всв58475 0.0 10251121
15:00+13всв57395 0.0 10241556
18:00+12св47485 0.0 10241358
21:00+6ссв310684 0.0 1025311